MST,Max TemperatureF,Mean TemperatureF,Min TemperatureF,Max Dew PointF,MeanDew PointF,Min DewpointF,Max Humidity, Mean Humidity, Min Humidity, Max Sea Level PressureIn, Mean Sea Level PressureIn, Min Sea Level PressureIn, Max VisibilityMiles, Mean VisibilityMiles, Min VisibilityMiles, Max Wind SpeedMPH, Mean Wind SpeedMPH, Max Gust SpeedMPH,PrecipitationIn, CloudCover, Events, WindDirDegrees
2012-11-1,71,58,44,23,18,14,34,22,12,30.19,30.13,30.09,10,10,4,13,3,16,0.00,0,,253
2012-11-2,69,58,48,30,26,23,43,32,23,30.14,30.10,30.06,10,10,9,12,2,,0.00,0,,263
2012-11-3,69,56,44,30,27,25,53,33,20,30.24,30.18,30.12,10,10,10,10,2,17,0.00,0,,280
2012-11-4,73,62,50,25,20,12,35,22,13,30.31,30.27,30.23,10,10,3,10,4,16,0.00,0,,358
2012-11-5,75,64,53,23,19,14,29,19,11,30.33,30.28,30.23,10,10,9,8,3,,0.00,0,,14
2012-11-6,75,64,53,27,23,19,33,23,13,30.31,30.26,30.22,10,10,3,8,3,,0.00,0,,307
2012-11-7,73,60,48,27,24,21,40,26,14,30.25,30.19,30.10,10,10,8,8,2,,0.00,0,,196
2012-11-8,66,56,46,50,28,23,100,40,19,30.12,30.06,30.02,10,10,4,14,2,26,0.07,2,,214
2012-11-9,55,48,42,52,45,37,100,81,51,30.02,29.90,29.80,10,9,2,21,7,30,0.33,7,,180
2012-11-10,42,36,30,37,29,19,100,80,42,30.05,29.92,29.80,10,9,2,18,8,30,0.13,5,,242
2012-11-11,42,32,23,28,18,10,100,60,29,30.36,30.22,30.05,10,10,9,10,2,,0.00,0,,309
2012-11-12,59,44,30,16,7,-4,44,26,9,30.37,30.30,30.23,10,10,7,12,4,18,0.00,0,,91
2012-11-13,64,50,35,16,10,3,44,24,11,30.29,30.25,30.20,10,10,9,8,4,,0.00,0,,58
2012-11-14,62,50,37,21,14,5,42,25,13,30.29,30.24,30.18,10,10,8,12,3,17,0.00,0,,127
2012-11-15,60,50,39,28,18,9,46,29,16,30.28,30.23,30.19,10,10,8,6,1,,0.00,2,,68
2012-11-16,64,53,42,27,22,19,49,30,19,30.25,30.21,30.18,10,10,8,8,3,,0.00,1,,154
2012-11-17,62,50,39,36,27,23,57,44,29,30.25,30.19,30.16,10,10,9,12,2,16,0.00,2,,190
2012-11-18,60,50,39,37,34,28,76,56,36,30.25,30.20,30.16,10,10,9,8,2,16,0.00,3,,256
2012-11-19,60,48,35,37,32,25,93,59,25,30.35,30.30,30.25,10,10,10,7,2,,0.00,0,,241
2012-11-20,66,52,39,32,28,23,70,42,19,30.32,30.25,30.19,10,10,9,10,3,16,0.00,0,,136
2012-11-21,66,54,42,32,32,30,66,45,26,30.22,30.17,30.13,10,10,9,9,3,,0.00,0,,129
2012-11-22,66,52,39,32,22,3,75,37,8,30.30,30.22,30.16,10,10,9,7,3,,0.00,0,,299
2012-11-23,69,58,46,23,20,12,40,26,11,30.38,30.34,30.30,10,10,5,9,5,,0.00,0,,64
2012-11-24,66,56,44,27,25,21,49,34,21,30.35,30.26,30.15,10,10,9,10,4,,0.00,0,,112
2012-11-25,64,52,41,30,27,25,57,40,24,30.15,30.08,30.01,10,10,7,6,2,,0.00,0,,230
2012-11-26,64,52,39,30,24,18,61,39,18,30.26,30.16,30.08,10,10,10,10,3,,0.00,0,,263
2012-11-27,64,52,39,25,22,18,49,32,20,30.36,30.30,30.26,10,10,9,8,2,,0.00,0,,158
2012-11-28,64,53,42,28,28,25,57,39,26,30.32,30.27,30.21,10,10,8,13,4,18,0.00,0,,141
2012-11-29,60,48,37,32,29,27,70,49,29,30.30,30.25,30.22,10,10,10,8,3,,0.00,0,,251
2012-11-30,60,48,35,36,33,30,87,60,36,30.28,30.22,30.18,10,10,10,6,2,,0.00,0,,232